Location: Asheville, NC
(35.6000°N, 82.5500°W)
Time: 09:42:57
(UTC-04:00)

RS-15 - Pass Details

Date: 13 March 2018
Orbit: 1890 x 2154 km, 64.8° (Epoch: 24 June)

Event Time Altitude Azimuth Distance (km) Brightness Sun altitude
Exits shadow 23:54:31 18° 45° (NE) 4,015 9.6 -49.0°
Drops below altitude 10° 23:56:48 10° 40° (NE) 4,611 10.0 -49.3°
Sets 00:00:20 0° 35° (NE) 5,590 10.6 -49.8°
